Radiation Dose at Monitoring Post of Fukushima Daini Nuclear Power Station
Date,Time,MP-1(microSv/h),MP-2(microSv/h),MP-3(microSv/h),MP-4(microSv/h),MP-5(microSv/h),MP-6(microSv/h),MP-7(microSv/h),Wind Direction,Wind Velocity(m/s),Rain
2014/04/09,00:00,0.7,0.5,0.8,0.7,0.7,0.3,0.3,north-northeast,2.5,No
2014/04/09,00:10,0.7,0.5,0.8,0.7,0.7,0.3,0.3,north-northeast,2.9,No
2014/04/09,00:20,0.7,0.5,0.8,0.7,0.7,0.3,0.3,north-northeast,3.1,No
2014/04/09,00:30,0.7,0.5,0.8,0.7,0.7,0.3,0.3,north-northeast,4.6,No
2014/04/09,00:40,0.7,0.5,0.8,0.7,0.7,0.3,0.3,northeast,4.7,No
2014/04/09,00:50,0.7,0.5,0.8,0.7,0.7,0.3,0.3,northeast,3.5,No
2014/04/09,01:00,0.7,0.5,0.8,0.7,0.7,0.3,0.3,northeast,2.9,No
2014/04/09,01:10,0.7,0.5,0.8,0.7,0.7,0.3,0.3,east-northeast,1.3,No
2014/04/09,01:20,0.7,0.5,0.8,0.7,0.7,0.3,0.3,east-northeast,0.7,No
2014/04/09,01:30,0.7,0.5,0.8,0.7,0.7,0.3,0.3,-,CALM,No
2014/04/09,01:40,0.7,0.5,0.8,0.7,0.7,0.3,0.3,north,0.8,No
2014/04/09,01:50,0.7,0.5,0.8,0.7,0.7,0.3,0.3,west,0.7,No
2014/04/09,02:00,0.7,0.5,0.8,0.7,0.7,0.3,0.3,-,CALM,No
2014/04/09,02:10,0.7,0.5,0.8,0.7,0.7,0.3,0.3,north-northwest,1.1,No
2014/04/09,02:20,0.7,0.5,0.8,0.7,0.7,0.3,0.3,northwest,0.7,No
2014/04/09,02:30,0.7,0.5,0.8,0.7,0.7,0.3,0.3,-,CALM,No
2014/04/09,02:40,0.7,0.5,0.8,0.7,0.7,0.3,0.3,-,CALM,No
2014/04/09,02:50,0.7,0.5,0.8,0.7,0.7,0.3,0.3,north,0.6,No
2014/04/09,03:00,0.7,0.5,0.8,0.7,0.7,0.3,0.3,east-northeast,0.5,No
2014/04/09,03:10,0.7,0.5,0.8,0.7,0.7,0.3,0.3,northeast,1.0,No
2014/04/09,03:20,0.7,0.5,0.8,0.7,0.7,0.3,0.3,northeast,0.8,No
2014/04/09,03:30,0.7,0.5,0.8,0.7,0.7,0.3,0.3,north,0.8,No
2014/04/09,03:40,0.7,0.5,0.8,0.7,0.7,0.3,0.3,north,0.8,No
2014/04/09,03:50,0.7,0.5,0.8,0.7,0.7,0.3,0.3,-,CALM,No
2014/04/09,04:00,0.7,0.5,0.8,0.7,0.7,0.3,0.3,north,0.9,No
2014/04/09,04:10,0.7,0.5,0.8,0.7,0.7,0.3,0.3,northeast,1.4,No
2014/04/09,04:20,0.7,0.5,0.8,0.7,0.7,0.3,0.3,north,1.1,No
2014/04/09,04:30,0.7,0.5,0.8,0.7,0.7,0.3,0.3,north-northwest,1.9,No
2014/04/09,04:40,0.7,0.5,0.8,0.7,0.7,0.3,0.3,north,2.3,No
2014/04/09,04:50,0.7,0.5,0.8,0.7,0.7,0.3,0.3,north,2.6,No
2014/04/09,05:00,0.7,0.5,0.8,0.7,0.7,0.3,0.3,north,3.1,No
2014/04/09,05:10,0.7,0.5,0.8,0.7,0.7,0.3,0.3,north,3.3,No
2014/04/09,05:20,0.7,0.5,0.8,0.7,0.7,0.3,0.3,north,3.4,No
2014/04/09,05:30,0.7,0.5,0.8,0.7,0.7,0.3,0.3,north-northeast,3.2,No
2014/04/09,05:40,0.7,0.5,0.8,0.7,0.7,0.3,0.3,north,3.3,No
2014/04/09,05:50,0.7,0.5,0.8,0.7,0.7,0.3,0.3,north,3.0,No
2014/04/09,06:00,0.7,0.5,0.8,0.7,0.7,0.3,0.3,north,3.2,No
2014/04/09,06:10,0.7,0.5,0.8,0.7,0.7,0.3,0.3,north,3.5,No
2014/04/09,06:20,0.7,0.5,0.8,0.7,0.7,0.3,0.3,north-northeast,2.6,No
2014/04/09,06:30,0.7,0.5,0.8,0.7,0.7,0.3,0.3,north-northeast,2.9,No
2014/04/09,06:40,0.7,0.5,0.8,0.7,0.7,0.3,0.3,north-northeast,1.6,No
2014/04/09,06:50,0.7,0.5,0.8,0.7,0.7,0.3,0.3,north,0.5,No
2014/04/09,07:00,0.7,0.5,0.8,0.7,0.7,0.3,0.3,north-northeast,1.5,No
2014/04/09,07:10,0.7,0.5,0.8,0.7,0.7,0.3,0.3,north-northeast,1.9,No
2014/04/09,07:20,0.7,0.5,0.8,0.7,0.7,0.3,0.3,north-northeast,2.5,No
2014/04/09,07:30,0.7,0.5,0.8,0.7,0.7,0.3,0.3,north,3.1,No
2014/04/09,07:40,0.7,0.5,0.8,0.7,0.7,0.3,0.3,north,1.9,No
2014/04/09,07:50,0.7,0.5,0.8,0.7,0.7,0.3,0.3,north,1.1,No
2014/04/09,08:00,0.7,0.5,0.8,0.7,0.7,0.3,0.3,north-northwest,1.6,No
2014/04/09,08:10,0.7,0.5,0.8,0.7,0.7,0.3,0.3,north,1.9,No
2014/04/09,08:20,0.7,0.5,0.8,0.7,0.7,0.3,0.3,north,1.7,No
2014/04/09,08:30,0.7,0.5,0.8,0.7,0.7,0.3,0.3,north,2.5,No
2014/04/09,08:40,0.7,0.5,0.8,0.7,0.7,0.3,0.3,north,1.3,No
2014/04/09,08:50,0.7,0.5,0.8,0.7,0.7,0.3,0.3,north-northeast,1.6,No
2014/04/09,09:00,0.7,0.5,0.8,0.7,0.7,0.3,0.3,-,CALM,No
2014/04/09,09:10,0.7,0.5,0.8,0.7,0.7,0.3,0.3,-,CALM,No
2014/04/09,09:20,0.7,0.5,0.8,0.7,0.7,0.3,0.3,-,CALM,No
2014/04/09,09:30,0.7,0.5,0.8,0.7,0.7,0.3,0.3,northeast,0.5,No
2014/04/09,09:40,0.7,0.5,0.8,0.7,0.7,0.3,0.3,east,0.6,No
2014/04/09,09:50,0.7,0.5,0.8,0.7,0.7,0.3,0.3,east,0.6,No
2014/04/09,10:00,0.7,0.5,0.8,0.7,0.7,0.3,0.3,-,CALM,No
2014/04/09,10:10,0.7,0.5,0.8,0.7,0.7,0.3,0.3,southeast,0.5,No
2014/04/09,10:20,0.7,0.5,0.8,0.7,0.7,0.3,0.3,southeast,0.8,No
2014/04/09,10:30,0.7,0.5,0.8,0.7,0.7,0.3,0.3,south-southeast,1.9,No
2014/04/09,10:40,0.7,0.5,0.8,0.7,0.7,0.3,0.3,east-southeast,1.5,No
2014/04/09,10:50,0.7,0.5,0.8,0.7,0.7,0.3,0.3,southeast,1.9,No
2014/04/09,11:00,0.7,0.5,0.8,0.7,0.7,0.3,0.3,southeast,2.1,No
2014/04/09,11:10,0.7,0.5,0.8,0.7,0.7,0.3,0.3,east-southeast,1.9,No
2014/04/09,11:20,0.7,0.5,0.8,0.7,0.7,0.3,0.3,south-southeast,1.8,No
2014/04/09,11:30,0.7,0.5,0.8,0.7,0.7,0.3,0.3,south,2.1,No
2014/04/09,11:40,0.7,0.5,0.8,0.7,0.7,0.3,0.3,south-southeast,2.3,No
2014/04/09,11:50,0.7,0.5,0.8,0.7,0.7,0.3,0.3,south,2.1,No
2014/04/09,12:00,0.7,0.5,0.8,0.7,0.7,0.3,0.3,south,1.9,No
2014/04/09,12:10,0.7,0.5,0.8,0.7,0.7,0.3,0.3,south-southwest,1.3,No
2014/04/09,12:20,0.7,0.5,0.8,0.7,0.7,0.3,0.3,south-southeast,1.6,No
2014/04/09,12:30,0.7,0.5,0.8,0.7,0.7,0.3,0.3,south,2.0,No
2014/04/09,12:40,0.7,0.5,0.8,0.7,0.7,0.3,0.3,south-southwest,1.3,No
2014/04/09,12:50,0.7,0.5,0.8,0.7,0.7,0.3,0.3,south,2.1,No
2014/04/09,13:00,0.7,0.5,0.8,0.7,0.7,0.3,0.3,south-southeast,1.4,No
2014/04/09,13:10,0.7,0.5,0.8,0.7,0.7,0.3,0.3,southeast,1.6,No
2014/04/09,13:20,0.7,0.5,0.8,0.7,0.7,0.3,0.3,southeast,1.9,No
2014/04/09,13:30,0.7,0.5,0.8,0.7,0.7,0.3,0.3,south-southeast,1.9,No
2014/04/09,13:40,0.7,0.5,0.8,0.7,0.7,0.3,0.3,south-southeast,1.9,No
2014/04/09,13:50,0.7,0.5,0.8,0.7,0.7,0.3,0.3,south-southeast,1.1,No
2014/04/09,14:00,0.7,0.5,0.8,0.7,0.7,0.3,0.3,southeast,2.1,No
2014/04/09,14:10,0.7,0.5,0.8,0.7,0.7,0.3,0.3,southeast,1.9,No
2014/04/09,14:20,0.7,0.5,0.8,0.7,0.7,0.3,0.3,south-southeast,1.9,No
2014/04/09,14:30,0.7,0.5,0.8,0.7,0.7,0.3,0.3,south,1.7,No
2014/04/09,14:40,0.7,0.5,0.8,0.7,0.7,0.3,0.3,south-southwest,1.7,No
2014/04/09,14:50,0.7,0.5,0.8,0.7,0.7,0.3,0.3,south-southeast,1.3,No
2014/04/09,15:00,0.7,0.5,0.8,0.7,0.7,0.3,0.3,south-southeast,2.0,No
2014/04/09,15:10,0.7,0.5,0.8,0.7,0.7,0.3,0.3,south-southeast,2.5,No
2014/04/09,15:20,0.7,0.5,0.8,0.7,0.7,0.3,0.3,south,1.5,No
2014/04/09,15:30,0.7,0.5,0.8,0.7,0.7,0.3,0.3,south,2.2,No
2014/04/09,15:40,0.7,0.5,0.8,0.7,0.7,0.3,0.3,south,0.7,No
2014/04/09,15:50,0.7,0.5,0.8,0.7,0.7,0.3,0.3,south-southwest,0.9,No
2014/04/09,16:00,0.7,0.5,0.8,0.7,0.7,0.3,0.3,south,3.0,No
2014/04/09,16:10,0.7,0.5,0.8,0.7,0.7,0.3,0.3,south,4.9,No
2014/04/09,16:20,0.7,0.5,0.8,0.7,0.7,0.3,0.3,south,4.9,No
2014/04/09,16:30,0.7,0.5,0.8,0.7,0.7,0.3,0.3,south,4.8,No
2014/04/09,16:40,0.7,0.5,0.8,0.7,0.7,0.3,0.3,south,3.1,No
2014/04/09,16:50,0.7,0.5,0.8,0.7,0.7,0.3,0.3,south,3.5,No
2014/04/09,17:00,0.7,0.5,0.8,0.7,0.7,0.3,0.3,south,3.1,No
2014/04/09,17:10,0.7,0.5,0.8,0.7,0.7,0.3,0.3,south,6.3,No
2014/04/09,17:20,0.7,0.5,0.8,0.7,0.7,0.3,0.3,south,5.2,No
2014/04/09,17:30,0.7,0.5,0.8,0.7,0.7,0.3,0.3,south,5.4,No
2014/04/09,17:40,0.7,0.5,0.8,0.7,0.7,0.3,0.3,south,7.4,No
2014/04/09,17:50,0.7,0.5,0.8,0.7,0.7,0.3,0.3,south,7.0,No
2014/04/09,18:00,0.7,0.5,0.8,0.7,0.7,0.3,0.3,south-southwest,5.6,No
2014/04/09,18:10,0.7,0.5,0.8,0.7,0.7,0.3,0.3,south,5.5,No
2014/04/09,18:20,0.7,0.5,0.8,0.7,0.7,0.3,0.3,south-southwest,6.3,No
2014/04/09,18:30,0.7,0.5,0.8,0.7,0.7,0.3,0.3,south-southwest,6.3,No
2014/04/09,18:40,0.7,0.5,0.8,0.7,0.7,0.3,0.3,south-southwest,7.8,No
2014/04/09,18:50,0.7,0.5,0.8,0.7,0.7,0.3,0.3,south-southwest,8.6,No
2014/04/09,19:00,0.7,0.5,0.8,0.7,0.7,0.3,0.3,south,8.2,No
2014/04/09,19:10,0.7,0.5,0.8,0.7,0.7,0.3,0.3,south,8.6,No
2014/04/09,19:20,0.7,0.5,0.8,0.7,0.7,0.3,0.3,south-southwest,8.0,No
2014/04/09,19:30,0.7,0.5,0.8,0.7,0.7,0.3,0.3,south-southwest,7.8,No
2014/04/09,19:40,0.7,0.5,0.8,0.7,0.7,0.3,0.3,south-southwest,7.4,No
2014/04/09,19:50,0.7,0.5,0.8,0.7,0.7,0.3,0.3,south-southwest,7.3,No
2014/04/09,20:00,0.7,0.5,0.8,0.7,0.7,0.3,0.3,south-southwest,7.8,No
2014/04/09,20:10,0.7,0.5,0.8,0.7,0.7,0.3,0.3,south-southwest,7.4,No
2014/04/09,20:20,0.7,0.5,0.8,0.7,0.7,0.3,0.3,south-southwest,9.1,No
2014/04/09,20:30,0.7,0.5,0.8,0.7,0.7,0.3,0.3,south-southwest,9.2,No
2014/04/09,20:40,0.7,0.5,0.8,0.7,0.7,0.3,0.3,south-southwest,9.3,No
2014/04/09,20:50,0.7,0.5,0.8,0.7,0.7,0.3,0.3,south-southwest,9.4,No
2014/04/09,21:00,0.7,0.5,0.8,0.7,0.7,0.3,0.3,south-southwest,8.4,No
2014/04/09,21:10,0.7,0.5,0.8,0.7,0.7,0.3,0.3,south-southwest,9.8,No
2014/04/09,21:20,0.7,0.5,0.8,0.7,0.7,0.3,0.3,south-southwest,8.6,No
2014/04/09,21:30,0.7,0.5,0.8,0.7,0.7,0.3,0.3,south-southwest,9.2,No
2014/04/09,21:40,0.7,0.5,0.8,0.7,0.7,0.3,0.3,south-southwest,9.4,No
2014/04/09,21:50,0.7,0.5,0.8,0.7,0.7,0.3,0.3,south-southwest,8.7,No
2014/04/09,22:00,0.7,0.5,0.8,0.7,0.7,0.3,0.3,south-southwest,9.3,No
2014/04/09,22:10,0.7,0.5,0.8,0.7,0.7,0.3,0.3,south-southwest,9.0,No
2014/04/09,22:20,0.7,0.5,0.8,0.7,0.7,0.3,0.3,south-southwest,8.5,No
2014/04/09,22:30,0.7,0.5,0.8,0.7,0.7,0.3,0.3,south-southwest,7.9,No
2014/04/09,22:40,0.7,0.5,0.8,0.7,0.7,0.3,0.3,south-southwest,6.9,No
2014/04/09,22:50,0.7,0.5,0.8,0.7,0.7,0.3,0.3,southwest,5.8,No
2014/04/09,23:00,0.7,0.5,0.8,0.7,0.7,0.3,0.3,southwest,6.1,No
2014/04/09,23:10,0.7,0.5,0.8,0.7,0.7,0.3,0.3,southwest,5.7,No
2014/04/09,23:20,0.7,0.5,0.8,0.7,0.7,0.3,0.3,southwest,5.9,No
2014/04/09,23:30,0.7,0.5,0.8,0.7,0.7,0.3,0.3,southwest,6.3,Yes
2014/04/09,23:40,0.7,0.5,0.8,0.7,0.7,0.3,0.3,south-southwest,5.6,No
2014/04/09,23:50,0.7,0.5,0.8,0.7,0.7,0.3,0.3,southwest,5.3,No
